This is the latest recevied weather packets stored in our database for station/object SM6LNJ-13. If no packets are shown the sender has not sent any weather packets the latest 1 day(s).
| Time | Temp. | Humidity | Pressure | Rain* | Wind** | Luminosity | Snow |
|---|---|---|---|---|---|---|---|
| 1778067830 | 13.89° C | 46% | 1428.5 hPa | 0 mm | 0.89 m/s, 213° | - | - |
| 1778067710 | 13.89° C | 46% | 1428.2 hPa | 0 mm | 0.45 m/s, 217° | - | - |
| 1778067591 | 13.89° C | 46% | 1428.3 hPa | 0 mm | 0.89 m/s, 202° | - | - |
| 1778067471 | 13.89° C | 47% | 1428.5 hPa | 0 mm | 0.89 m/s, 223° | - | - |
| 1778067350 | 13.89° C | 46% | 1428.7 hPa | 0 mm | 0.89 m/s, 228° | - | - |
| 1778067230 | 13.89° C | 43% | 1428.5 hPa | 0 mm | 0.45 m/s, 210° | - | - |
| 1778067110 | 13.89° C | 42% | 1428.4 hPa | 0 mm | 0.45 m/s, 194° | - | - |
| 1778066990 | 13.89° C | 42% | 1428.4 hPa | 0 mm | 0.89 m/s, 202° | - | - |
| 1778066870 | 13.89° C | 42% | 1428.8 hPa | 0 mm | 0.89 m/s, 230° | - | - |
| 1778066750 | 14.44° C | 43% | 1429.4 hPa | 0 mm | 0.89 m/s, 209° | - | - |
| 1778066630 | 14.44° C | 41% | 1429.6 hPa | 0 mm | 0.45 m/s, 190° | - | - |
| 1778066510 | 14.44° C | 42% | 1429.3 hPa | 0 mm | 0.45 m/s, 195° | - | - |
| 1778066390 | 13.89° C | 42% | 1429 hPa | 0 mm | 0.89 m/s, 222° | - | - |
| 1778066270 | 13.89° C | 41% | 1428.7 hPa | 0 mm | 0.89 m/s, 177° | - | - |
| 1778066150 | 13.89° C | 42% | 1428.7 hPa | 0 mm | 0.45 m/s, 204° | - | - |
| 1778066030 | 13.89° C | 40% | 1428.5 hPa | 0 mm | 0.89 m/s, 200° | - | - |
| 1778065910 | 13.89° C | 41% | 1428.3 hPa | 0 mm | 0.45 m/s, 233° | - | - |
| 1778065790 | 13.89° C | 43% | 1428.2 hPa | 0 mm | 0.45 m/s, 184° | - | - |
| 1778065670 | 13.89° C | 42% | 1428 hPa | 0 mm | 0.89 m/s, 186° | - | - |
| 1778065550 | 13.89° C | 42% | 1427.9 hPa | 0 mm | 0.89 m/s, 210° | - | - |
| 1778065430 | 13.33° C | 41% | 1427.4 hPa | 0 mm | 0.45 m/s, 205° | - | - |
| 1778065310 | 13.33° C | 41% | 1427.3 hPa | 0 mm | 0.89 m/s, 198° | - | - |
| 1778065190 | 13.33° C | 41% | 1427.5 hPa | 0 mm | 0.89 m/s, 178° | - | - |
| 1778065070 | 13.33° C | 40% | 1427.5 hPa | 0 mm | 0.45 m/s, 180° | - | - |
| 1778064950 | 13.89° C | 38% | 1427.7 hPa | 0 mm | 0.89 m/s, 176° | - | - |
* Rain latest hour (hover to see other rain measurements)
** Current wind speed in m/s (hover to see current wind gust speed)